Monroe, LA

5:21 AM CDT on May 23, 2018 (GMT -0500)
Monroe Regional

Weather History for KMLU - October, 2013

Change the Weather History Date:

Sunday, October 20, 2013

  Actual Average Record
Temperature  
Mean Temperature 55 °F 65 °F  
Max Temperature 71 °F 78 °F 90 °F (1935)
Min Temperature 39 °F 52 °F 30 °F (1964)
Degree Days  
Heating Degree Days 10 3  
Month to date heating degree days 27 37  
Since 1 July heating degree days 27 43  
Cooling Degree Days 0 3  
Month to date cooling degree days 111 94  
Year to date cooling degree days 2409 2458  
Growing Degree Days 5 (Base 50)    
Moisture  
Dew Point 42 °F    
Average Humidity 67    
Maximum Humidity 100    
Minimum Humidity 34    
Precipitation  
Precipitation 0.00 in 0.17 in 1.90 in (1898)
Month to date precipitation 2.86 3.04  
Year to date precipitation 37.45 42.15  
Snow  
Snow 0.00 in - - ()
Month to date snowfall 0.0  
Since 1 July snowfall 0.0  
Since 1 September snowfall 0.0  
Snow Depth 0.00 in    
Sea Level Pressure  
Sea Level Pressure 30.08 in    
Wind  
Wind Speed 1 mph (ESE)    
Max Wind Speed 7 mph    
Max Gust Speed 12 mph    
Visibility 3 miles    
Events Fog    
T = Trace of Precipitation, MM = Missing Value Source: NWS Daily Summary

Daily Weather History Graph

Daily Weather History Graph

Search for Another Location

Airport or City:

Astronomy

Oct. 20, 2013 Rise Set
Actual Time 7:15 AM CDT 6:29 PM CDT
Civil Twilight 6:51 AM CDT 6:54 PM CDT
Nautical Twilight 6:22 AM CDT 7:22 PM CDT
Astronomical Twilight 5:53 AM CDT 7:51 PM CDT
Moon 7:44 PM CDT (10/20) 8:48 AM CDT (10/20)
Length of Visible Light 12h 03m
Length of Day
11h 13m
Full, 97% of the Moon is Illuminated
Oct 20
Full
Oct 26
Last Quarter
Nov 3
New
Nov 9
First Quarter
Nov 17
Full

Hourly Weather History & Observations

Time (CDT) Temp. Dew Point Humidity Pressure Visibility Wind Dir Wind Speed Gust Speed Precip Events Conditions
12:15 AM 46.4 °F 46.4 °F 100% 30.10 in 1.5 mi Calm Calm - N/A   Clear
12:26 AM 46.4 °F 44.6 °F 93% 30.09 in 0.2 mi Calm Calm - N/A Fog Fog
12:34 AM 46.4 °F 44.6 °F 93% 30.10 in 1.2 mi Calm Calm - N/A   Clear
12:44 AM 42.8 °F 42.8 °F 100% 30.09 in 0.2 mi Calm Calm - N/A Fog Fog
12:50 AM 44.6 °F 42.8 °F 93% 30.09 in 0.2 mi Calm Calm - N/A Fog Fog
12:53 AM 44.1 °F 43.0 °F 96% 30.09 in 0.2 mi Calm Calm - N/A Fog Fog
1:10 AM 44.6 °F 42.8 °F 93% 30.09 in 0.8 mi Calm Calm - N/A   Mist
1:15 AM 44.6 °F 44.6 °F 100% 30.09 in 1.2 mi Calm Calm - N/A   Partly Cloudy
1:29 AM 44.6 °F 42.8 °F 93% 30.09 in 0.5 mi Calm Calm - N/A Fog Fog
1:48 AM 44.6 °F 42.8 °F 93% 30.09 in 0.2 mi Calm Calm - N/A Fog Fog
1:53 AM 45.0 °F 44.1 °F 97% 30.09 in 0.2 mi Calm Calm - N/A Fog Fog
2:04 AM 44.6 °F 42.8 °F 93% 30.09 in 0.2 mi Calm Calm - N/A Fog Fog
2:22 AM 44.6 °F 42.8 °F 93% 30.09 in 0.5 mi Calm Calm - N/A Fog Fog
2:50 AM 42.8 °F 42.8 °F 100% 30.09 in 0.2 mi Calm Calm - N/A Fog Fog
2:53 AM 43.0 °F 42.1 °F 97% 30.09 in 0.2 mi Calm Calm - N/A Fog Fog
2:57 AM 42.8 °F 42.8 °F 100% 30.08 in 0.2 mi Calm Calm - N/A Fog Fog
3:31 AM 42.8 °F 42.8 °F 100% 30.08 in 0.5 mi Calm Calm - N/A Fog Fog
3:39 AM 41.0 °F 39.2 °F 93% 30.08 in 0.2 mi Calm Calm - N/A Fog Fog
3:53 AM 43.0 °F 42.1 °F 97% 30.08 in 0.2 mi Calm Calm - N/A Fog Fog
4:05 AM 42.8 °F 42.8 °F 100% 30.08 in 0.2 mi Calm Calm - N/A Fog Fog
4:13 AM 42.8 °F 41.0 °F 93% 30.08 in 0.2 mi Calm Calm - N/A Fog Fog
4:53 AM 41.0 °F 41.0 °F 100% 30.08 in 0.2 mi Calm Calm - 0.01 in Fog Fog
4:59 AM 41.0 °F 39.2 °F 93% 30.08 in 0.5 mi Calm Calm - N/A Fog Fog
5:02 AM 41.0 °F 39.2 °F 93% 30.08 in 0.2 mi Calm Calm - N/A Fog Fog
5:20 AM 41.0 °F 39.2 °F 93% 30.09 in 0.5 mi Calm Calm - N/A Fog Fog
5:30 AM 39.2 °F 39.2 °F 100% 30.09 in 1.2 mi Calm Calm - N/A   Partly Cloudy
5:33 AM 39.2 °F 39.2 °F 100% 30.09 in 0.8 mi Calm Calm - N/A   Mist
5:36 AM 41.0 °F 39.2 °F 93% 30.09 in 0.5 mi Calm Calm - N/A Fog Fog
5:53 AM 41.0 °F 39.9 °F 96% 30.09 in 0.5 mi Calm Calm - N/A Fog Fog
6:13 AM 42.8 °F 41.0 °F 93% 30.10 in 1.5 mi Calm Calm - N/A   Scattered Clouds
6:15 AM 42.8 °F 41.0 °F 93% 30.10 in 3.0 mi Calm Calm - N/A   Partly Cloudy
6:17 AM 42.8 °F 41.0 °F 93% 30.10 in 1.8 mi Calm Calm - N/A   Partly Cloudy
6:25 AM 41.0 °F 41.0 °F 100% 30.10 in 0.5 mi Calm Calm - N/A Fog Fog
6:42 AM 39.2 °F 39.2 °F 100% 30.11 in 0.5 mi Calm Calm - N/A Fog Fog
6:53 AM 39.0 °F 39.0 °F 100% 30.11 in 0.2 mi Calm Calm - N/A Fog Fog
7:01 AM 39.2 °F 39.2 °F 100% 30.11 in 0.5 mi Calm Calm - N/A Fog Fog
7:21 AM 39.2 °F 39.2 °F 100% 30.11 in 0.2 mi Calm Calm - N/A Fog Fog
7:53 AM 39.9 °F 39.9 °F 100% 30.12 in 0.2 mi Calm Calm - N/A Fog Fog
8:12 AM 44.6 °F 44.6 °F 100% 30.13 in 1.0 mi Calm Calm - N/A   Mist
8:14 AM 44.6 °F 44.6 °F 100% 30.13 in 4.0 mi Calm Calm - N/A   Scattered Clouds
8:53 AM 48.0 °F 46.9 °F 96% 30.14 in 10.0 mi Calm Calm - N/A   Clear
9:53 AM 54.0 °F 46.9 °F 77% 30.15 in 10.0 mi SSE 3.5 mph - N/A   Clear
10:53 AM 59.0 °F 46.9 °F 64% 30.14 in 10.0 mi Variable 3.5 mph - N/A   Clear
11:53 AM 64.0 °F 44.1 °F 48% 30.12 in 10.0 mi Variable 3.5 mph - N/A   Clear
12:53 PM 64.9 °F 39.9 °F 40% 30.10 in 10.0 mi Calm Calm - N/A   Clear
1:53 PM 68.0 °F 41.0 °F 37% 30.06 in 10.0 mi Calm Calm - N/A   Clear
2:53 PM 70.0 °F 42.1 °F 36% 30.03 in 10.0 mi Calm Calm - N/A   Clear
3:53 PM 71.1 °F 41.0 °F 34% 30.01 in 10.0 mi NE 3.5 mph - N/A   Clear
4:53 PM 70.0 °F 41.0 °F 35% 30.01 in 10.0 mi Calm Calm - N/A   Clear
5:53 PM 66.0 °F 44.1 °F 45% 30.01 in 10.0 mi Calm Calm - N/A   Clear
6:53 PM 55.9 °F 46.9 °F 72% 30.01 in 10.0 mi Calm Calm - N/A   Clear
7:53 PM 50.0 °F 46.0 °F 86% 30.01 in 10.0 mi Calm Calm - N/A   Clear
8:53 PM 48.9 °F 46.0 °F 90% 30.02 in 10.0 mi Calm Calm - N/A   Clear
9:53 PM 48.0 °F 46.0 °F 93% 30.03 in 10.0 mi Calm Calm - N/A   Clear
10:53 PM 45.0 °F 43.0 °F 93% 30.02 in 10.0 mi Calm Calm - N/A   Clear
11:53 PM 45.0 °F 43.0 °F 93% 30.02 in 10.0 mi Calm Calm - N/A   Clear